Newport News, VA

6:16 AM EST on December 17, 2017 (GMT -0500)
Newport News-Williamsburg International

Weather History for KPHF - July, 2014

Change the Weather History Date:

Monday, July 21, 2014

  Actual Average Record
Temperature  
Mean Temperature 78 °F -  
Max Temperature 82 °F 88 °F 101 °F (1952)
Min Temperature 73 °F 70 °F 55 °F (2001)
Cooling Degree Days 14    
Growing Degree Days 28 (Base 50)    
Moisture  
Dew Point 70 °F    
Average Humidity 76    
Maximum Humidity 84    
Minimum Humidity 69    
Precipitation  
Precipitation 0.00 in - - ()
Sea Level Pressure  
Sea Level Pressure 30.16 in    
Wind  
Wind Speed 6 mph (East)    
Max Wind Speed 10 mph    
Max Gust Speed -    
Visibility 10 miles    
Events      
Averages and records for this station are not official NWS values.
T = Trace of Precipitation, MM = Missing Value Source: NWS Daily Summary

Daily Weather History Graph

Daily Weather History Graph

Search for Another Location

Airport or City:

Trip Planner

Search our weather history database for the weather conditions in past years. The results will help you decide how hot, cold, wet, or windy it might be!

Date:

Astronomy

Jul. 21, 2014 Rise Set
Actual Time 6:02 AM EDT 8:22 PM EDT
Civil Twilight 5:32 AM EDT 8:51 PM EDT
Nautical Twilight 4:55 AM EDT 9:28 PM EDT
Astronomical Twilight 4:15 AM EDT 10:08 PM EDT
Moon 1:49 AM EDT (7/21) 4:03 PM EDT (7/21)
Length of Visible Light 15h 19m
Length of Day
14h 20m
Waning Crescent, 24% of the Moon is Illuminated
Jul 21
Waning Crescent
Jul 26
New
Aug 3
First Quarter
Aug 10
Full
Aug 17
Last Quarter

Hourly Weather History & Observations

Time (EDT) Temp. Heat Index Dew Point Humidity Pressure Visibility Wind Dir Wind Speed Gust Speed Precip Events Conditions
12:54 AM 75.9 °F - 70.0 °F 82% 30.13 in 10.0 mi ESE 3.5 mph - N/A   Overcast
1:21 AM 75.9 °F - 70.0 °F 82% 30.13 in 10.0 mi ESE 3.5 mph - N/A   Overcast
1:30 AM 75.9 °F - 70.0 °F 82% 30.12 in 10.0 mi East 4.6 mph - N/A   Overcast
1:54 AM 75.9 °F - 70.0 °F 82% 30.12 in 10.0 mi East 4.6 mph - N/A   Overcast
2:08 AM 75.9 °F - 70.0 °F 82% 30.12 in 10.0 mi East 4.6 mph - N/A   Overcast
2:54 AM 75.9 °F - 69.1 °F 79% 30.11 in 10.0 mi ESE 5.8 mph - N/A   Overcast
3:49 AM 75.2 °F - 69.8 °F 83% 30.11 in 10.0 mi SE 4.6 mph - N/A   Mostly Cloudy
3:54 AM 75.9 °F - 70.0 °F 82% 30.12 in 10.0 mi SSE 4.6 mph - N/A   Overcast
4:08 AM 75.9 °F - 69.1 °F 79% 30.12 in 10.0 mi SE 4.6 mph - N/A   Overcast
4:54 AM 75.9 °F - 70.0 °F 82% 30.12 in 10.0 mi East 3.5 mph - N/A   Overcast
5:54 AM 75.9 °F - 70.0 °F 82% 30.14 in 10.0 mi East 5.8 mph - N/A   Overcast
6:39 AM 75.9 °F - 70.0 °F 82% 30.14 in 10.0 mi East 4.6 mph - N/A   Overcast
6:54 AM 77.0 °F - 70.0 °F 79% 30.14 in 10.0 mi East 3.5 mph - N/A   Overcast
7:11 AM 77.0 °F - 70.0 °F 79% 30.15 in 10.0 mi East 4.6 mph - N/A   Overcast
7:54 AM 78.1 °F - 70.0 °F 76% 30.16 in 10.0 mi ESE 5.8 mph - N/A   Overcast
8:07 AM 79.0 °F - 70.0 °F 74% 30.16 in 10.0 mi East 6.9 mph - N/A   Overcast
8:54 AM 80.1 °F 83.2 °F 70.0 °F 71% 30.17 in 10.0 mi East 6.9 mph - N/A   Overcast
9:03 AM 80.1 °F 83.2 °F 70.0 °F 71% 30.17 in 10.0 mi East 5.8 mph - N/A   Overcast
9:22 AM 80.1 °F 83.6 °F 71.1 °F 74% 30.17 in 10.0 mi East 6.9 mph - N/A   Overcast
9:30 AM 80.1 °F 83.6 °F 71.1 °F 74% 30.17 in 10.0 mi East 8.1 mph - N/A   Overcast
9:54 AM 80.1 °F 83.6 °F 71.1 °F 74% 30.17 in 10.0 mi ENE 6.9 mph - N/A   Overcast
10:10 AM 80.1 °F 83.6 °F 71.1 °F 74% 30.17 in 10.0 mi ENE 9.2 mph - N/A   Overcast
10:16 AM 80.1 °F 83.6 °F 71.1 °F 74% 30.17 in 10.0 mi East 9.2 mph - N/A   Overcast
10:52 AM 80.6 °F 84.6 °F 71.6 °F 74% 30.18 in 10.0 mi East 5.8 mph - N/A   Overcast
10:54 AM 81.0 °F 84.9 °F 71.1 °F 72% 30.18 in 10.0 mi ESE 6.9 mph - N/A   Overcast
11:03 AM 81.0 °F 84.9 °F 71.1 °F 72% 30.18 in 10.0 mi East 6.9 mph - N/A   Overcast
11:54 AM 80.1 °F 82.9 °F 69.1 °F 69% 30.18 in 10.0 mi East 6.9 mph - N/A   Overcast
12:54 PM 80.1 °F 83.2 °F 70.0 °F 71% 30.18 in 10.0 mi East 6.9 mph - N/A   Overcast
1:54 PM 81.0 °F 84.4 °F 70.0 °F 69% 30.17 in 10.0 mi ENE 6.9 mph - N/A   Overcast
2:52 PM 82.4 °F 87.2 °F 71.6 °F 70% 30.17 in 10.0 mi ESE 8.1 mph - N/A   Overcast
2:54 PM 82.0 °F 86.3 °F 71.1 °F 69% 30.17 in 10.0 mi East 9.2 mph - N/A   Overcast
3:01 PM 82.0 °F 86.3 °F 71.1 °F 69% 30.16 in 10.0 mi East 9.2 mph - N/A   Overcast
3:42 PM 82.0 °F 86.3 °F 71.1 °F 69% 30.16 in 10.0 mi ESE 8.1 mph - N/A   Overcast
3:51 PM 80.6 °F 84.6 °F 71.6 °F 74% 30.17 in 10.0 mi ESE 8.1 mph - N/A   Overcast
3:54 PM 81.0 °F 84.9 °F 71.1 °F 72% 30.17 in 10.0 mi East 9.2 mph - N/A   Overcast
4:54 PM 81.0 °F 84.9 °F 71.1 °F 72% 30.17 in 10.0 mi ESE 8.1 mph - N/A   Mostly Cloudy
5:54 PM 80.1 °F 83.2 °F 70.0 °F 71% 30.17 in 10.0 mi East 10.4 mph - N/A   Overcast
6:54 PM 79.0 °F - 70.0 °F 74% 30.17 in 10.0 mi East 8.1 mph - N/A   Overcast
7:54 PM 78.1 °F - 70.0 °F 76% 30.16 in 10.0 mi East 6.9 mph - N/A   Mostly Cloudy
8:06 PM 78.1 °F - 70.0 °F 76% 30.16 in 10.0 mi East 8.1 mph - N/A   Mostly Cloudy
8:37 PM 78.1 °F - 70.0 °F 76% 30.16 in 10.0 mi East 6.9 mph - N/A   Scattered Clouds
8:54 PM 77.0 °F - 70.0 °F 79% 30.17 in 10.0 mi ESE 5.8 mph - N/A   Clear
9:54 PM 77.0 °F - 70.0 °F 79% 30.17 in 10.0 mi East 4.6 mph - N/A   Clear
10:54 PM 75.0 °F - 70.0 °F 84% 30.18 in 10.0 mi Calm Calm - N/A   Clear
11:54 PM 73.0 °F - 68.0 °F 84% 30.17 in 10.0 mi NE 3.5 mph - N/A   Clear